Rome Ciampino, Italy

3:02 AM CEST on April 28, 2017 (GMT +0200)
Ciampino

Weather History for LIRA - September, 2011

Change the Weather History Date:

Monday, September 19, 2011

  Actual Average Record
Temperature  
Mean Temperature 66 °F -  
Max Temperature 73 °F 74 °F 84 °F (2014)
Min Temperature 59 °F 54 °F 50 °F (2001)
Cooling Degree Days 1    
Growing Degree Days 16 (Base 50)    
Moisture  
Dew Point 59 °F    
Average Humidity 75    
Maximum Humidity 100    
Minimum Humidity 43    
Precipitation  
Precipitation 0.00 in 0.11 in - ()
Sea Level Pressure  
Sea Level Pressure 29.69 in    
Wind  
Wind Speed 9 mph ()    
Max Wind Speed 18 mph    
Max Gust Speed 37 mph    
Visibility 6.0 miles    
Events Rain , Thunderstorm    
Averages and records for this station are not official NWS values.
T = Trace of Precipitation, MM = Missing Value Source: Averaged Metar Reports

Daily Weather History Graph

Daily Weather History Graph

Search for Another Location

Airport or City:

Trip Planner

Search our weather history database for the weather conditions in past years. The results will help you decide how hot, cold, wet, or windy it might be!

Date:

Astronomy

Sep. 19, 2011 Rise Set
Actual Time 6:53 AM CEST 7:13 PM CEST
Civil Twilight 6:25 AM CEST 7:41 PM CEST
Nautical Twilight 5:52 AM CEST 8:13 PM CEST
Astronomical Twilight 5:19 AM CEST 8:47 PM CEST
Moon 10:58 PM CEST (9/19) 1:35 PM CEST (9/19)
Length of Visible Light 13h 15m
Length of Day
12h 19m
Waning Gibbous, 61% of the Moon is Illuminated
Sep 19
Waning Gibbous
Sep 20
Last Quarter
Sep 27
New
Oct 4
First Quarter
Oct 12
Full

Hourly Weather History & Observations

Time (CEST) Temp. Dew Point Humidity Pressure Visibility Wind Dir Wind Speed Gust Speed Precip Events Conditions
12:45 AM 73.4 °F 69.8 °F 88% 29.74 in 6.2 mi SSE 13.8 mph - N/A   Scattered Clouds
1:15 AM 73.4 °F 69.8 °F 88% 29.71 in 6.2 mi SSE 16.1 mph - N/A   Scattered Clouds
1:45 AM 73.4 °F 68.0 °F 83% 29.65 in 6.2 mi SE 12.7 mph - N/A   Partly Cloudy
2:15 AM 73.4 °F 69.8 °F 88% 29.68 in 6.2 mi SSE 12.7 mph - N/A   Scattered Clouds
2:45 AM 73.4 °F 69.8 °F 88% 29.68 in 6.2 mi SSE 17.3 mph - N/A Thunderstorm Thunderstorm
3:15 AM 73.4 °F 69.8 °F 88% 29.62 in 6.2 mi SE 17.3 mph - N/A Thunderstorm Thunderstorm
3:45 AM 69.8 °F 68.0 °F 94% 29.62 in 2.5 mi ESE 15.0 mph 27.6 mph N/A Rain , Thunderstorm Rain Showers
4:15 AM 66.2 °F 66.2 °F 100% 29.65 in 1.9 mi West 9.2 mph - N/A Rain , Thunderstorm Thunderstorms and Rain
4:45 AM 68.0 °F 66.2 °F 94% 29.68 in 6.2 mi SSW 3.5 mph - N/A Thunderstorm Thunderstorm
5:15 AM 68.0 °F 66.2 °F 94% 29.68 in 6.2 mi South 6.9 mph - N/A Rain Light Rain
5:45 AM 66.2 °F 64.4 °F 94% 29.68 in 6.2 mi South 5.8 mph - N/A Rain Light Rain
6:15 AM 66.2 °F 64.4 °F 94% 29.65 in 6.2 mi South 6.9 mph - N/A Rain Light Rain
6:45 AM 66.2 °F 62.6 °F 88% 29.65 in 6.2 mi SSW 4.6 mph - N/A Rain Light Rain
7:15 AM 66.2 °F 60.8 °F 83% 29.65 in 6.2 mi South 6.9 mph - N/A   Mostly Cloudy
7:45 AM 64.4 °F 60.8 °F 88% 29.65 in 6.2 mi South 8.1 mph - N/A   Scattered Clouds
8:15 AM 66.2 °F 59.0 °F 78% 29.65 in 6.2 mi South 6.9 mph - N/A   Scattered Clouds
8:45 AM 66.2 °F 59.0 °F 78% 29.65 in 6.2 mi SSE 6.9 mph - N/A   Scattered Clouds
9:15 AM 68.0 °F 59.0 °F 73% 29.65 in 6.2 mi South 8.1 mph - N/A   Scattered Clouds
9:45 AM 69.8 °F 60.8 °F 73% 29.65 in 6.2 mi South 5.8 mph - N/A   Scattered Clouds
10:15 AM 69.8 °F 60.8 °F 73% 29.65 in 6.2 mi WNW 8.1 mph 19.6 mph N/A   Partly Cloudy
10:45 AM 71.6 °F 48.2 °F 43% 29.68 in 6.2 mi NW 9.2 mph - N/A   Partly Cloudy
11:15 AM 71.6 °F 48.2 °F 43% 29.68 in 6.2 mi West 8.1 mph - N/A   Partly Cloudy
11:45 AM 71.6 °F 50.0 °F 46% 29.68 in 6.2 mi WSW 5.8 mph - N/A   Scattered Clouds
12:15 PM 71.6 °F 55.4 °F 57% 29.68 in 6.2 mi SW 9.2 mph - N/A   Scattered Clouds
12:45 PM 73.4 °F 55.4 °F 53% 29.71 in 6.2 mi SW 12.7 mph - N/A   Scattered Clouds
1:15 PM 73.4 °F 53.6 °F 50% 29.71 in 6.2 mi SSW 11.5 mph 23.0 mph N/A   Scattered Clouds
1:45 PM 71.6 °F 55.4 °F 57% 29.71 in 6.2 mi SW 13.8 mph 26.5 mph N/A   Scattered Clouds
2:15 PM 71.6 °F 51.8 °F 50% 29.71 in 6.2 mi SSW 12.7 mph 25.3 mph N/A   Scattered Clouds
2:45 PM 71.6 °F 51.8 °F 50% 29.68 in 6.2 mi SSW 10.4 mph - N/A   Partly Cloudy
3:15 PM 71.6 °F 50.0 °F 46% 29.68 in 6.2 mi West 10.4 mph 21.9 mph N/A Rain Light Rain Showers
3:45 PM 71.6 °F 55.4 °F 57% 29.68 in 6.2 mi West 18.4 mph 36.8 mph N/A Thunderstorm Thunderstorm
4:15 PM 69.8 °F 53.6 °F 56% 29.71 in 6.2 mi West 18.4 mph 33.4 mph N/A   Partly Cloudy
4:45 PM 69.8 °F 53.6 °F 56% 29.71 in 6.2 mi West 12.7 mph - N/A Rain Light Rain
5:15 PM 64.4 °F 57.2 °F 77% 29.71 in 6.2 mi WSW 5.8 mph - N/A Rain , Thunderstorm Light Thunderstorms and Rain
5:45 PM 64.4 °F 57.2 °F 77% 29.71 in 6.2 mi Calm Calm - N/A Rain , Thunderstorm Light Thunderstorms and Rain
6:15 PM 66.2 °F 57.2 °F 73% 29.71 in 6.2 mi WSW 1.2 mph - N/A   Scattered Clouds
6:45 PM 66.2 °F 59.0 °F 78% 29.71 in 6.2 mi NW 3.5 mph - N/A   Scattered Clouds
7:15 PM 64.4 °F 59.0 °F 83% 29.71 in 6.2 mi WSW 2.3 mph - N/A   Scattered Clouds
7:45 PM 64.4 °F 57.2 °F 77% 29.71 in 6.2 mi South 4.6 mph - N/A Thunderstorm Thunderstorm
8:15 PM 64.4 °F 57.2 °F 77% 29.71 in 6.2 mi SSW 2.3 mph - N/A Thunderstorm Thunderstorm
8:45 PM 64.4 °F 57.2 °F 77% 29.71 in 6.2 mi SSW 1.2 mph - N/A   Scattered Clouds
9:15 PM 64.4 °F 59.0 °F 83% 29.71 in 6.2 mi South 2.3 mph - N/A Thunderstorm Thunderstorm
9:45 PM 62.6 °F 57.2 °F 82% 29.74 in 3.7 mi WSW 8.1 mph 20.7 mph N/A Rain , Thunderstorm Light Thunderstorms and Rain
10:15 PM 59.0 °F 57.2 °F 94% 29.74 in 6.2 mi Calm Calm - N/A Thunderstorm Thunderstorm
10:45 PM 59.0 °F 53.6 °F 82% 29.74 in 6.2 mi East 6.9 mph - N/A Thunderstorm Thunderstorm
11:15 PM 59.0 °F 55.4 °F 88% 29.74 in 6.2 mi ENE 2.3 mph - N/A Thunderstorm Thunderstorm
11:45 PM 59.0 °F 57.2 °F 94% 29.74 in 6.2 mi WSW 4.6 mph - N/A   Scattered Clouds